Year,Month,Day,Hour,Minute,Value (Times are PST for temperature in C)
2016,06,08,00,00,16.70
2016,06,08,00,01,16.70
2016,06,08,00,02,16.70
2016,06,08,00,03,16.70
2016,06,08,00,04,16.70
2016,06,08,00,05,16.80
2016,06,08,00,06,16.80
2016,06,08,00,07,16.80
2016,06,08,00,08,16.80
2016,06,08,00,09,16.80
2016,06,08,00,10,16.80
2016,06,08,00,11,16.80
2016,06,08,00,12,16.80
2016,06,08,00,13,16.80
2016,06,08,00,14,16.80
2016,06,08,00,15,16.80
2016,06,08,00,16,16.80
2016,06,08,00,17,16.80
2016,06,08,00,18,16.80
2016,06,08,00,19,16.80
2016,06,08,00,20,16.80
2016,06,08,00,21,16.80
2016,06,08,00,22,16.70
2016,06,08,00,23,16.70
2016,06,08,00,24,16.70
2016,06,08,00,25,16.70
2016,06,08,00,26,16.70
2016,06,08,00,27,16.70
2016,06,08,00,28,16.60
2016,06,08,00,29,16.60
2016,06,08,00,30,16.60
2016,06,08,00,31,16.60
2016,06,08,00,32,16.60
2016,06,08,00,33,16.60
2016,06,08,00,34,16.60
2016,06,08,00,35,16.60
2016,06,08,00,36,16.60
2016,06,08,00,37,16.60
2016,06,08,00,38,16.60
2016,06,08,00,39,16.60
2016,06,08,00,40,16.60
2016,06,08,00,41,16.60
2016,06,08,00,42,16.60
2016,06,08,00,43,16.60
2016,06,08,00,44,16.60
2016,06,08,00,45,16.60
2016,06,08,00,46,16.60
2016,06,08,00,47,16.60
2016,06,08,00,48,16.60
2016,06,08,00,49,16.60
2016,06,08,00,50,16.60
2016,06,08,00,51,16.60
2016,06,08,00,52,16.60
2016,06,08,00,53,16.50
2016,06,08,00,54,16.50
2016,06,08,00,55,16.50
2016,06,08,00,56,16.40
2016,06,08,00,57,16.40
2016,06,08,00,58,16.40
2016,06,08,00,59,16.40
2016,06,08,01,00,16.40
2016,06,08,01,01,16.30
2016,06,08,01,02,16.30
2016,06,08,01,03,16.30
2016,06,08,01,04,16.30
2016,06,08,01,05,16.30
2016,06,08,01,06,16.20
2016,06,08,01,07,16.20
2016,06,08,01,08,16.20
2016,06,08,01,09,16.20
2016,06,08,01,10,16.20
2016,06,08,01,11,16.20
2016,06,08,01,12,16.20
2016,06,08,01,13,16.20
2016,06,08,01,14,16.20
2016,06,08,01,15,16.10
2016,06,08,01,16,16.10
2016,06,08,01,17,16.10
2016,06,08,01,18,16.10
2016,06,08,01,19,16.10
2016,06,08,01,20,16.00
2016,06,08,01,21,16.00
2016,06,08,01,22,15.90
2016,06,08,01,23,15.90
2016,06,08,01,24,15.90
2016,06,08,01,25,15.80
2016,06,08,01,26,15.80
2016,06,08,01,27,15.70
2016,06,08,01,28,15.60
2016,06,08,01,29,15.60
2016,06,08,01,30,15.50
2016,06,08,01,31,15.40
2016,06,08,01,32,15.30
2016,06,08,01,33,15.30
2016,06,08,01,34,15.20
2016,06,08,01,35,15.10
2016,06,08,01,36,15.10
2016,06,08,01,37,15.00
2016,06,08,01,38,14.90
2016,06,08,01,39,14.90
2016,06,08,01,40,14.80
2016,06,08,01,41,14.80
2016,06,08,01,42,14.70
2016,06,08,01,43,14.60
2016,06,08,01,44,14.60
2016,06,08,01,45,14.50
2016,06,08,01,46,14.40
2016,06,08,01,47,14.40
2016,06,08,01,48,14.30
2016,06,08,01,49,14.30
2016,06,08,01,50,14.30
2016,06,08,01,51,14.30
2016,06,08,01,52,14.20
2016,06,08,01,53,14.20
2016,06,08,01,54,14.20
2016,06,08,01,55,14.20
2016,06,08,01,56,14.10
2016,06,08,01,57,14.10
2016,06,08,01,58,14.10
2016,06,08,01,59,14.10
2016,06,08,02,00,14.10
2016,06,08,02,01,14.00
2016,06,08,02,02,14.00
2016,06,08,02,03,14.00
2016,06,08,02,04,13.90
2016,06,08,02,05,13.90
2016,06,08,02,06,13.90
2016,06,08,02,07,13.90
2016,06,08,02,08,13.90
2016,06,08,02,09,13.90
2016,06,08,02,10,13.90
2016,06,08,02,11,13.90
2016,06,08,02,12,13.90
2016,06,08,02,13,13.90
2016,06,08,02,14,13.90
2016,06,08,02,15,13.90
2016,06,08,02,16,13.90
2016,06,08,02,17,13.90
2016,06,08,02,18,13.90
2016,06,08,02,19,13.90
2016,06,08,02,20,13.90
2016,06,08,02,21,13.90
2016,06,08,02,22,13.90
2016,06,08,02,23,13.90
2016,06,08,02,24,13.90
2016,06,08,02,25,13.90
2016,06,08,02,26,13.90
2016,06,08,02,27,13.90
2016,06,08,02,28,13.90
2016,06,08,02,29,13.90
2016,06,08,02,30,13.90
2016,06,08,02,31,13.90
2016,06,08,02,32,13.90
2016,06,08,02,33,13.90
2016,06,08,02,34,13.90
2016,06,08,02,35,13.90
2016,06,08,02,36,13.80
2016,06,08,02,37,13.80
2016,06,08,02,38,13.80
2016,06,08,02,39,13.80
2016,06,08,02,40,13.80
2016,06,08,02,41,13.80
2016,06,08,02,42,13.80
2016,06,08,02,43,13.80
2016,06,08,02,44,13.80
2016,06,08,02,45,13.80
2016,06,08,02,46,13.80
2016,06,08,02,47,13.80
2016,06,08,02,48,13.80
2016,06,08,02,49,13.80
2016,06,08,02,50,13.80
2016,06,08,02,51,13.80
2016,06,08,02,52,13.70
2016,06,08,02,53,13.70
2016,06,08,02,54,13.70
2016,06,08,02,55,13.70
2016,06,08,02,56,13.70
2016,06,08,02,57,13.70
2016,06,08,02,58,13.70
2016,06,08,02,59,13.70
2016,06,08,03,00,13.70
2016,06,08,03,01,13.70
2016,06,08,03,02,13.70
2016,06,08,03,03,13.70
2016,06,08,03,04,13.70
2016,06,08,03,05,13.70
2016,06,08,03,06,13.70
2016,06,08,03,07,13.70
2016,06,08,03,08,13.70
2016,06,08,03,09,13.70
2016,06,08,03,10,13.70
2016,06,08,03,11,13.70
2016,06,08,03,12,13.70
2016,06,08,03,13,13.70
2016,06,08,03,14,13.70
2016,06,08,03,15,13.70
2016,06,08,03,16,13.70
2016,06,08,03,17,13.70
2016,06,08,03,18,13.60
2016,06,08,03,19,13.60
2016,06,08,03,20,13.60
2016,06,08,03,21,13.60
2016,06,08,03,22,13.60
2016,06,08,03,23,13.60
2016,06,08,03,24,13.60
2016,06,08,03,25,13.60
2016,06,08,03,26,13.60
2016,06,08,03,27,13.60
2016,06,08,03,28,13.60
2016,06,08,03,29,13.60
2016,06,08,03,30,13.60
2016,06,08,03,31,13.60
2016,06,08,03,32,13.60
2016,06,08,03,33,13.60
2016,06,08,03,34,13.60
2016,06,08,03,35,13.60
2016,06,08,03,36,13.60
2016,06,08,03,37,13.60
2016,06,08,03,38,13.60
2016,06,08,03,39,13.60
2016,06,08,03,40,13.60
2016,06,08,03,41,13.60
2016,06,08,03,42,13.70
2016,06,08,03,43,13.70
2016,06,08,03,44,13.70
2016,06,08,03,45,13.70
2016,06,08,03,46,13.70
2016,06,08,03,47,13.70
2016,06,08,03,48,13.70
2016,06,08,03,49,13.70
2016,06,08,03,50,13.70
2016,06,08,03,51,13.70
2016,06,08,03,52,13.70
2016,06,08,03,53,13.70
2016,06,08,03,54,13.80
2016,06,08,03,55,13.80
2016,06,08,03,56,13.80
2016,06,08,03,57,13.80
2016,06,08,03,58,13.80
2016,06,08,03,59,13.80
2016,06,08,04,00,13.80
2016,06,08,04,01,13.80
2016,06,08,04,02,13.80
2016,06,08,04,03,13.80
2016,06,08,04,04,13.80
2016,06,08,04,05,13.80
2016,06,08,04,06,13.80
2016,06,08,04,07,13.80
2016,06,08,04,08,13.80
2016,06,08,04,09,13.70
2016,06,08,04,10,13.70
2016,06,08,04,11,13.70
2016,06,08,04,12,13.70
2016,06,08,04,13,13.70
2016,06,08,04,14,13.70
2016,06,08,04,15,13.70
2016,06,08,04,16,13.70
2016,06,08,04,17,13.70
2016,06,08,04,18,13.70
2016,06,08,04,19,13.70
2016,06,08,04,20,13.70
2016,06,08,04,21,13.70
2016,06,08,04,22,13.60
2016,06,08,04,23,13.60
2016,06,08,04,24,13.60
2016,06,08,04,25,13.60
2016,06,08,04,26,13.60
2016,06,08,04,27,13.60
2016,06,08,04,28,13.60
2016,06,08,04,29,13.60
2016,06,08,04,30,13.50
2016,06,08,04,31,13.50
2016,06,08,04,32,13.50
2016,06,08,04,33,13.50
2016,06,08,04,34,13.50
2016,06,08,04,35,13.50
2016,06,08,04,36,13.40
2016,06,08,04,37,13.40
2016,06,08,04,38,13.40
2016,06,08,04,39,13.40
2016,06,08,04,40,13.40
2016,06,08,04,41,13.40
2016,06,08,04,42,13.40
2016,06,08,04,43,13.40
2016,06,08,04,44,13.40
2016,06,08,04,45,13.40
2016,06,08,04,46,13.40
2016,06,08,04,47,13.40
2016,06,08,04,48,13.40
2016,06,08,04,49,13.40
2016,06,08,04,50,13.40
2016,06,08,04,51,13.40
2016,06,08,04,52,13.40
2016,06,08,04,53,13.40
2016,06,08,04,54,13.40
2016,06,08,04,55,13.40
2016,06,08,04,56,13.40
2016,06,08,04,57,13.40
2016,06,08,04,58,13.40
2016,06,08,04,59,13.40
2016,06,08,05,00,13.40
2016,06,08,05,01,13.40
2016,06,08,05,02,13.40
2016,06,08,05,03,13.40
2016,06,08,05,04,13.40
2016,06,08,05,05,13.40
2016,06,08,05,06,13.40
2016,06,08,05,07,13.30
2016,06,08,05,08,13.30
2016,06,08,05,09,13.30
2016,06,08,05,10,13.30
2016,06,08,05,11,13.30
2016,06,08,05,12,13.30
2016,06,08,05,13,13.30
2016,06,08,05,14,13.30
2016,06,08,05,15,13.30
2016,06,08,05,16,13.30
2016,06,08,05,17,13.30
2016,06,08,05,18,13.30
2016,06,08,05,19,13.30
2016,06,08,05,20,13.30
2016,06,08,05,21,13.30
2016,06,08,05,22,13.30
2016,06,08,05,23,13.30
2016,06,08,05,24,13.40
2016,06,08,05,25,13.40
2016,06,08,05,26,13.40
2016,06,08,05,27,13.40
2016,06,08,05,28,13.40
2016,06,08,05,29,13.40
2016,06,08,05,30,13.40
2016,06,08,05,31,13.40
2016,06,08,05,32,13.40
2016,06,08,05,33,13.40
2016,06,08,05,34,13.40
2016,06,08,05,35,13.50
2016,06,08,05,36,13.50
2016,06,08,05,37,13.50
2016,06,08,05,38,13.60
2016,06,08,05,39,13.60
2016,06,08,05,40,13.60
2016,06,08,05,41,13.60
2016,06,08,05,42,13.60
2016,06,08,05,43,13.60
2016,06,08,05,44,13.60
2016,06,08,05,45,13.50
2016,06,08,05,46,13.50
2016,06,08,05,47,13.50
2016,06,08,05,48,13.50
2016,06,08,05,49,13.50
2016,06,08,05,50,13.50
2016,06,08,05,51,13.50
2016,06,08,05,52,13.50
2016,06,08,05,53,13.50
2016,06,08,05,54,13.50
2016,06,08,05,55,13.60
2016,06,08,05,56,13.60
2016,06,08,05,57,13.60
2016,06,08,05,58,13.60
2016,06,08,05,59,13.60
2016,06,08,06,00,13.70
2016,06,08,06,01,13.70
2016,06,08,06,02,13.70
2016,06,08,06,03,13.70
2016,06,08,06,04,13.70
2016,06,08,06,05,13.70
2016,06,08,06,06,13.70
2016,06,08,06,07,13.80
2016,06,08,06,08,13.80
2016,06,08,06,09,13.80
2016,06,08,06,10,13.80
2016,06,08,06,11,13.80
2016,06,08,06,12,13.80
2016,06,08,06,13,13.80
2016,06,08,06,14,13.90
2016,06,08,06,15,13.90
2016,06,08,06,16,13.90
2016,06,08,06,17,13.90
2016,06,08,06,18,13.90
2016,06,08,06,19,14.00
2016,06,08,06,20,14.00
2016,06,08,06,21,14.00
2016,06,08,06,22,14.00
2016,06,08,06,23,14.00
2016,06,08,06,24,14.10
2016,06,08,06,25,14.10
2016,06,08,06,26,14.10
2016,06,08,06,27,14.10
2016,06,08,06,28,14.10
2016,06,08,06,29,14.10
2016,06,08,06,30,14.10
2016,06,08,06,31,14.10
2016,06,08,06,32,14.10
2016,06,08,06,33,14.10
2016,06,08,06,34,14.10
2016,06,08,06,35,14.20
2016,06,08,06,36,14.20
2016,06,08,06,37,14.20
2016,06,08,06,38,14.20
2016,06,08,06,39,14.20
2016,06,08,06,40,14.30
2016,06,08,06,41,14.30
2016,06,08,06,42,14.30
2016,06,08,06,43,14.30
2016,06,08,06,44,14.40
2016,06,08,06,45,14.40
2016,06,08,06,46,14.40
2016,06,08,06,47,14.40
2016,06,08,06,48,14.40
2016,06,08,06,49,14.50
2016,06,08,06,50,14.50
2016,06,08,06,51,14.50
2016,06,08,06,52,14.60
2016,06,08,06,53,14.60
2016,06,08,06,54,14.70
2016,06,08,06,55,14.70
2016,06,08,06,56,14.80
2016,06,08,06,57,14.80
2016,06,08,06,58,14.90
2016,06,08,06,59,15.00
2016,06,08,07,00,15.00
2016,06,08,07,01,15.10
2016,06,08,07,02,15.10
2016,06,08,07,03,15.20
2016,06,08,07,04,15.30
2016,06,08,07,05,15.30
2016,06,08,07,06,15.40
2016,06,08,07,07,15.40
2016,06,08,07,08,15.50
2016,06,08,07,09,15.50
2016,06,08,07,10,15.60
2016,06,08,07,11,15.70
2016,06,08,07,12,15.70
2016,06,08,07,13,15.70
2016,06,08,07,14,15.80
2016,06,08,07,15,15.80
2016,06,08,07,16,15.80
2016,06,08,07,17,15.90
2016,06,08,07,18,15.90
2016,06,08,07,19,15.90
2016,06,08,07,20,16.00
2016,06,08,07,21,16.10
2016,06,08,07,22,16.10
2016,06,08,07,23,16.20
2016,06,08,07,24,16.20
2016,06,08,07,25,16.30
2016,06,08,07,26,16.30
2016,06,08,07,27,16.40
2016,06,08,07,28,16.40
2016,06,08,07,29,16.50
2016,06,08,07,30,16.60
2016,06,08,07,31,16.70
2016,06,08,07,32,16.70
2016,06,08,07,33,16.80
2016,06,08,07,34,16.80
2016,06,08,07,35,16.80
2016,06,08,07,36,16.70
2016,06,08,07,37,16.70
2016,06,08,07,38,16.70
2016,06,08,07,39,16.60
2016,06,08,07,40,16.60
2016,06,08,07,41,16.50
2016,06,08,07,42,16.40
2016,06,08,07,43,16.40
2016,06,08,07,44,16.30
2016,06,08,07,45,16.20
2016,06,08,07,46,16.10
2016,06,08,07,47,16.00
2016,06,08,07,48,15.80
2016,06,08,07,49,15.70
2016,06,08,07,50,15.60
2016,06,08,07,51,15.60
2016,06,08,07,52,15.50
2016,06,08,07,53,15.30
2016,06,08,07,54,15.30
2016,06,08,07,55,15.20
2016,06,08,07,56,15.10
2016,06,08,07,57,15.10
2016,06,08,07,58,15.00
2016,06,08,07,59,14.90
2016,06,08,08,00,14.90
2016,06,08,08,01,14.90
2016,06,08,08,02,14.90
2016,06,08,08,03,14.80
2016,06,08,08,04,14.80
2016,06,08,08,05,14.70
2016,06,08,08,06,14.60
2016,06,08,08,07,14.50
2016,06,08,08,08,14.40
2016,06,08,08,09,14.40
2016,06,08,08,10,14.30
2016,06,08,08,11,14.30
2016,06,08,08,12,14.20
2016,06,08,08,13,14.20
2016,06,08,08,14,14.20
2016,06,08,08,15,14.10
2016,06,08,08,16,14.10
2016,06,08,08,17,14.10
2016,06,08,08,18,14.10
2016,06,08,08,19,14.10
2016,06,08,08,20,14.10
2016,06,08,08,21,14.10
2016,06,08,08,22,14.10
2016,06,08,08,23,14.10
2016,06,08,08,24,14.10
2016,06,08,08,25,14.10
2016,06,08,08,26,14.20
2016,06,08,08,27,14.20
2016,06,08,08,28,14.20
2016,06,08,08,29,14.30
2016,06,08,08,30,14.30
2016,06,08,08,31,14.40
2016,06,08,08,32,14.40
2016,06,08,08,33,14.50
2016,06,08,08,34,14.60
2016,06,08,08,35,14.60
2016,06,08,08,36,14.70
2016,06,08,08,37,14.80
2016,06,08,08,38,14.80
2016,06,08,08,39,14.80
2016,06,08,08,40,14.90
2016,06,08,08,41,14.90
2016,06,08,08,42,15.00
2016,06,08,08,43,15.00
2016,06,08,08,44,15.10
2016,06,08,08,45,15.10
2016,06,08,08,46,15.10
2016,06,08,08,47,15.20
2016,06,08,08,48,15.20
2016,06,08,08,49,15.20
2016,06,08,08,50,15.20
2016,06,08,08,51,15.20
2016,06,08,08,52,15.20
2016,06,08,08,53,15.20
2016,06,08,08,54,15.30
2016,06,08,08,55,15.30
2016,06,08,08,56,15.20
2016,06,08,08,57,15.20
2016,06,08,08,58,15.20
2016,06,08,08,59,15.20
2016,06,08,09,00,15.20
2016,06,08,09,01,15.20
2016,06,08,09,02,15.20
2016,06,08,09,03,15.20
2016,06,08,09,04,15.20
2016,06,08,09,05,15.20
2016,06,08,09,06,15.20
2016,06,08,09,07,15.10
2016,06,08,09,08,15.10
2016,06,08,09,09,15.00
2016,06,08,09,10,15.00
2016,06,08,09,11,14.90
2016,06,08,09,12,14.80
2016,06,08,09,13,14.80
2016,06,08,09,14,14.70
2016,06,08,09,15,14.60
2016,06,08,09,16,14.60
2016,06,08,09,17,14.50
2016,06,08,09,18,14.40
2016,06,08,09,19,14.40
2016,06,08,09,20,14.30
2016,06,08,09,21,14.20
2016,06,08,09,22,14.10
2016,06,08,09,23,14.10
2016,06,08,09,24,14.00
2016,06,08,09,25,14.00
2016,06,08,09,26,13.90
2016,06,08,09,27,13.90
2016,06,08,09,28,13.90
2016,06,08,09,29,13.80
2016,06,08,09,30,13.80
2016,06,08,09,31,13.80
2016,06,08,09,32,13.80
2016,06,08,09,33,13.70
2016,06,08,09,34,13.70
2016,06,08,09,35,13.70
2016,06,08,09,36,13.70
2016,06,08,09,37,13.70
2016,06,08,09,38,13.70
2016,06,08,09,39,13.70
2016,06,08,09,40,13.70
2016,06,08,09,41,13.70
2016,06,08,09,42,13.70
2016,06,08,09,43,13.70
2016,06,08,09,44,13.70
2016,06,08,09,45,13.70
2016,06,08,09,46,13.70
2016,06,08,09,47,13.60
2016,06,08,09,48,13.70
2016,06,08,09,49,13.60
2016,06,08,09,50,13.70
2016,06,08,09,51,13.70
2016,06,08,09,52,13.70
2016,06,08,09,53,13.70
2016,06,08,09,54,13.70
2016,06,08,09,55,13.70
2016,06,08,09,56,13.80
2016,06,08,09,57,13.80
2016,06,08,09,58,13.80
2016,06,08,09,59,13.90
2016,06,08,10,00,13.90
2016,06,08,10,01,13.90
2016,06,08,10,02,13.90
2016,06,08,10,03,14.00
2016,06,08,10,04,14.00
2016,06,08,10,05,14.00
2016,06,08,10,06,14.00
2016,06,08,10,07,14.00
2016,06,08,10,08,14.00
2016,06,08,10,09,14.00
2016,06,08,10,10,14.00
2016,06,08,10,11,14.10
2016,06,08,10,12,14.10
2016,06,08,10,13,14.10
2016,06,08,10,14,14.10
2016,06,08,10,15,14.10
2016,06,08,10,16,14.10
2016,06,08,10,17,14.20
2016,06,08,10,18,14.20
2016,06,08,10,19,14.20
2016,06,08,10,20,14.20
2016,06,08,10,21,14.20
2016,06,08,10,22,14.20
2016,06,08,10,23,14.20
2016,06,08,10,24,14.30
2016,06,08,10,25,14.30
2016,06,08,10,26,14.30
2016,06,08,10,27,14.30
2016,06,08,10,28,14.40
2016,06,08,10,29,14.40
2016,06,08,10,30,14.40
2016,06,08,10,31,14.40
2016,06,08,10,32,14.40
2016,06,08,10,33,14.40
2016,06,08,10,34,14.40
2016,06,08,10,35,14.40
2016,06,08,10,36,14.40
2016,06,08,10,37,14.30
2016,06,08,10,38,14.30
2016,06,08,10,39,14.30
2016,06,08,10,40,14.30
2016,06,08,10,41,14.30
2016,06,08,10,42,14.30
2016,06,08,10,43,14.30
2016,06,08,10,44,14.30
2016,06,08,10,45,14.30
2016,06,08,10,46,14.30
2016,06,08,10,47,14.30
2016,06,08,10,48,14.30
2016,06,08,10,49,14.20
2016,06,08,10,50,14.20
2016,06,08,10,51,14.20
2016,06,08,10,52,14.20
2016,06,08,10,53,14.20
2016,06,08,10,54,14.10
2016,06,08,10,55,14.10
2016,06,08,10,56,14.10
2016,06,08,10,57,14.10
2016,06,08,10,58,14.10
2016,06,08,10,59,14.10
2016,06,08,11,00,14.10
2016,06,08,11,01,14.10
2016,06,08,11,02,14.10
2016,06,08,11,03,14.10
2016,06,08,11,04,14.10
2016,06,08,11,05,14.10
2016,06,08,11,06,14.10
2016,06,08,11,07,14.10
2016,06,08,11,08,14.10
2016,06,08,11,09,14.10
2016,06,08,11,10,14.10
2016,06,08,11,11,14.10
2016,06,08,11,12,14.10
2016,06,08,11,13,14.10
2016,06,08,11,14,14.10
2016,06,08,11,15,14.10
2016,06,08,11,16,14.10
2016,06,08,11,17,14.00
2016,06,08,11,18,14.00
2016,06,08,11,19,14.00
2016,06,08,11,20,14.00
2016,06,08,11,21,14.00
2016,06,08,11,22,14.00
2016,06,08,11,23,14.00
2016,06,08,11,24,14.00
2016,06,08,11,25,14.00
2016,06,08,11,26,14.00
2016,06,08,11,27,14.10
2016,06,08,11,28,14.10
2016,06,08,11,29,14.20
2016,06,08,11,30,14.20
2016,06,08,11,31,14.20
2016,06,08,11,32,14.30
2016,06,08,11,33,14.40
2016,06,08,11,34,14.40
2016,06,08,11,35,14.50
2016,06,08,11,36,14.60
2016,06,08,11,37,14.60
2016,06,08,11,38,14.70
2016,06,08,11,39,14.70
2016,06,08,11,40,14.70
2016,06,08,11,41,14.80
2016,06,08,11,42,14.80
2016,06,08,11,43,14.80
2016,06,08,11,44,14.80
2016,06,08,11,45,14.90
2016,06,08,11,46,14.90
2016,06,08,11,47,15.00
2016,06,08,11,48,15.00
2016,06,08,11,49,15.10
2016,06,08,11,50,15.10
2016,06,08,11,51,15.10
2016,06,08,11,52,15.10
2016,06,08,11,53,15.10
2016,06,08,11,54,15.20
2016,06,08,11,55,15.20
2016,06,08,11,56,15.20
2016,06,08,11,57,15.20
2016,06,08,11,58,15.20
2016,06,08,11,59,15.20
2016,06,08,12,00,15.20
2016,06,08,12,01,15.30
2016,06,08,12,02,15.30
2016,06,08,12,03,15.30
2016,06,08,12,04,15.30
2016,06,08,12,05,15.30
2016,06,08,12,06,15.30
2016,06,08,12,07,15.30
2016,06,08,12,08,15.40
2016,06,08,12,09,15.40
2016,06,08,12,10,15.40
2016,06,08,12,11,15.50
2016,06,08,12,12,15.50
2016,06,08,12,13,15.50
2016,06,08,12,14,15.60
2016,06,08,12,15,15.60
2016,06,08,12,16,15.60
2016,06,08,12,17,15.70
2016,06,08,12,18,15.70
2016,06,08,12,19,15.70
2016,06,08,12,20,15.70
2016,06,08,12,21,15.80
2016,06,08,12,22,15.80
2016,06,08,12,23,15.80
2016,06,08,12,24,15.80
2016,06,08,12,25,15.90
2016,06,08,12,26,15.90
2016,06,08,12,27,15.90
2016,06,08,12,28,15.90
2016,06,08,12,29,15.90
2016,06,08,12,30,16.00
2016,06,08,12,31,16.00
2016,06,08,12,32,16.00
2016,06,08,12,33,16.00
2016,06,08,12,34,16.10
2016,06,08,12,35,16.10
2016,06,08,12,36,16.10
2016,06,08,12,37,16.10
2016,06,08,12,38,16.10
2016,06,08,12,39,16.10
2016,06,08,12,40,16.10
2016,06,08,12,41,16.10
2016,06,08,12,42,16.10
2016,06,08,12,43,16.00
2016,06,08,12,44,16.00
2016,06,08,12,45,16.00
2016,06,08,12,46,15.90
2016,06,08,12,47,15.90
2016,06,08,12,48,15.90
2016,06,08,12,49,15.80
2016,06,08,12,50,15.80
2016,06,08,12,51,15.70
2016,06,08,12,52,15.60
2016,06,08,12,53,15.60
2016,06,08,12,54,15.50
2016,06,08,12,55,15.50
2016,06,08,12,56,15.40
2016,06,08,12,57,15.40
2016,06,08,12,58,15.30
2016,06,08,12,59,15.30
2016,06,08,13,00,15.30
2016,06,08,13,01,15.30
2016,06,08,13,02,15.30
2016,06,08,13,03,15.30
2016,06,08,13,04,15.10
2016,06,08,13,05,14.80
2016,06,08,13,06,14.80
2016,06,08,13,07,14.80
2016,06,08,13,08,14.80
2016,06,08,13,09,14.80
2016,06,08,13,10,14.80
2016,06,08,13,11,14.90
2016,06,08,13,12,14.90
2016,06,08,13,13,15.00
2016,06,08,13,14,15.10
2016,06,08,13,15,15.10
2016,06,08,13,16,15.20
2016,06,08,13,17,15.30
2016,06,08,13,18,15.40
2016,06,08,13,19,15.50
2016,06,08,13,20,15.60
2016,06,08,13,21,15.70
2016,06,08,13,22,15.80
2016,06,08,13,23,16.00
2016,06,08,13,24,16.10
2016,06,08,13,25,16.20
2016,06,08,13,26,16.40
2016,06,08,13,27,16.50
2016,06,08,13,28,16.70
2016,06,08,13,29,16.90
2016,06,08,13,30,17.00
2016,06,08,13,31,17.20
2016,06,08,13,32,17.30
2016,06,08,13,33,17.50
2016,06,08,13,34,17.50
2016,06,08,13,35,17.60
2016,06,08,13,36,17.70
2016,06,08,13,37,17.80
2016,06,08,13,38,17.80
2016,06,08,13,39,17.80
2016,06,08,13,40,17.90
2016,06,08,13,41,17.90
2016,06,08,13,42,17.90
2016,06,08,13,43,17.90
2016,06,08,13,44,17.90
2016,06,08,13,45,17.90
2016,06,08,13,46,17.90
2016,06,08,13,47,17.90
2016,06,08,13,48,17.90
2016,06,08,13,49,17.90
2016,06,08,13,50,17.80
2016,06,08,13,51,17.80
2016,06,08,13,52,17.80
2016,06,08,13,53,17.80
2016,06,08,13,54,17.70
2016,06,08,13,55,17.70
2016,06,08,13,56,17.60
2016,06,08,13,57,17.60
2016,06,08,13,58,17.60
2016,06,08,13,59,17.50
2016,06,08,14,00,17.50
2016,06,08,14,01,17.40
2016,06,08,14,02,17.40
2016,06,08,14,03,17.40
2016,06,08,14,04,17.30
2016,06,08,14,05,17.30
2016,06,08,14,06,17.30
2016,06,08,14,07,17.20
2016,06,08,14,08,17.20
2016,06,08,14,09,17.20
2016,06,08,14,10,17.20
2016,06,08,14,11,17.10
2016,06,08,14,12,17.10
2016,06,08,14,13,17.10
2016,06,08,14,14,17.10
2016,06,08,14,15,17.10
2016,06,08,14,16,17.10
2016,06,08,14,17,17.10
2016,06,08,14,18,17.10
2016,06,08,14,19,17.20
2016,06,08,14,20,17.20
2016,06,08,14,21,17.20
2016,06,08,14,22,17.20
2016,06,08,14,23,17.20
2016,06,08,14,24,17.20
2016,06,08,14,25,17.20
2016,06,08,14,26,17.20
2016,06,08,14,27,17.20
2016,06,08,14,28,17.20
2016,06,08,14,29,17.20
2016,06,08,14,30,17.10
2016,06,08,14,31,17.10
2016,06,08,14,32,17.10
2016,06,08,14,33,17.10
2016,06,08,14,34,17.10
2016,06,08,14,35,17.00
2016,06,08,14,36,17.00
2016,06,08,14,37,17.00
2016,06,08,14,38,17.00
2016,06,08,14,39,17.00
2016,06,08,14,40,16.90
2016,06,08,14,41,16.90
2016,06,08,14,42,16.90
2016,06,08,14,43,16.80
2016,06,08,14,44,16.70
2016,06,08,14,45,16.70
2016,06,08,14,46,16.70
2016,06,08,14,47,16.60
2016,06,08,14,48,16.60
2016,06,08,14,49,16.60
2016,06,08,14,50,16.60
2016,06,08,14,51,16.60
2016,06,08,14,52,16.60
2016,06,08,14,53,16.60
2016,06,08,14,54,16.60
2016,06,08,14,55,16.60
2016,06,08,14,56,16.60
2016,06,08,14,57,16.60
2016,06,08,14,58,16.60
2016,06,08,14,59,16.60
2016,06,08,15,00,16.60
2016,06,08,15,01,16.60
2016,06,08,15,02,16.50
2016,06,08,15,03,16.50
2016,06,08,15,04,16.50
2016,06,08,15,05,16.50
2016,06,08,15,06,16.50
2016,06,08,15,07,16.50
2016,06,08,15,08,16.50
2016,06,08,15,09,16.50
2016,06,08,15,10,16.40
2016,06,08,15,11,16.40
2016,06,08,15,12,16.40
2016,06,08,15,13,16.40
2016,06,08,15,14,16.50
2016,06,08,15,15,16.50
2016,06,08,15,16,16.50
2016,06,08,15,17,16.50
2016,06,08,15,18,16.60
2016,06,08,15,19,16.60
2016,06,08,15,20,16.60
2016,06,08,15,21,16.60
2016,06,08,15,22,16.60
2016,06,08,15,23,16.60
2016,06,08,15,24,16.60
2016,06,08,15,25,16.60
2016,06,08,15,26,16.60
2016,06,08,15,27,16.60
2016,06,08,15,28,16.70
2016,06,08,15,29,16.70
2016,06,08,15,30,16.70
2016,06,08,15,31,16.70
2016,06,08,15,32,16.70
2016,06,08,15,33,16.70
2016,06,08,15,34,16.70
2016,06,08,15,35,16.70
2016,06,08,15,36,16.70
2016,06,08,15,37,16.70
2016,06,08,15,38,16.80
2016,06,08,15,39,16.80
2016,06,08,15,40,16.80
2016,06,08,15,41,16.80
2016,06,08,15,42,16.90
2016,06,08,15,43,16.90
2016,06,08,15,44,16.90
2016,06,08,15,45,17.00
2016,06,08,15,46,17.10
2016,06,08,15,47,17.20
2016,06,08,15,48,17.20
2016,06,08,15,49,17.30
2016,06,08,15,50,17.30
2016,06,08,15,51,17.40
2016,06,08,15,52,17.40
2016,06,08,15,53,17.50
2016,06,08,15,54,17.50
2016,06,08,15,55,17.60
2016,06,08,15,56,17.60
2016,06,08,15,57,17.60
2016,06,08,15,58,17.70
2016,06,08,15,59,17.70
2016,06,08,16,00,17.70
2016,06,08,16,01,17.70
2016,06,08,16,02,17.70
2016,06,08,16,03,17.80
2016,06,08,16,04,17.80
2016,06,08,16,05,17.80
2016,06,08,16,06,17.90
2016,06,08,16,07,17.90
2016,06,08,16,08,18.00
2016,06,08,16,09,18.00
2016,06,08,16,10,18.00
2016,06,08,16,11,18.00
2016,06,08,16,12,18.00
2016,06,08,16,13,18.00
2016,06,08,16,14,18.00
2016,06,08,16,15,17.90
2016,06,08,16,16,17.90
2016,06,08,16,17,17.90
2016,06,08,16,18,18.00
2016,06,08,16,19,18.10
2016,06,08,16,20,18.10
2016,06,08,16,21,18.20
2016,06,08,16,22,18.30
2016,06,08,16,23,18.40
2016,06,08,16,24,18.40
2016,06,08,16,25,18.40
2016,06,08,16,26,18.50
2016,06,08,16,27,18.60
2016,06,08,16,28,18.80
2016,06,08,16,29,18.80
2016,06,08,16,30,18.90
2016,06,08,16,31,18.90
2016,06,08,16,32,18.90
2016,06,08,16,33,18.90
2016,06,08,16,34,18.90
2016,06,08,16,35,19.00
2016,06,08,16,36,19.10
2016,06,08,16,37,19.10
2016,06,08,16,38,19.20
2016,06,08,16,39,19.20
2016,06,08,16,40,19.30
2016,06,08,16,41,19.40
2016,06,08,16,42,19.40
2016,06,08,16,43,19.40
2016,06,08,16,44,19.40
2016,06,08,16,45,19.40
2016,06,08,16,46,19.40
2016,06,08,16,47,19.30
2016,06,08,16,48,19.20
2016,06,08,16,49,19.00
2016,06,08,16,50,18.90
2016,06,08,16,51,18.90
2016,06,08,16,52,19.00
2016,06,08,16,53,19.00
2016,06,08,16,54,19.10
2016,06,08,16,55,19.10
2016,06,08,16,56,19.10
2016,06,08,16,57,19.10
2016,06,08,16,58,19.10
2016,06,08,16,59,19.10
2016,06,08,17,00,19.20
2016,06,08,17,01,19.20
2016,06,08,17,02,19.30
2016,06,08,17,03,19.30
2016,06,08,17,04,19.30
2016,06,08,17,05,19.30
2016,06,08,17,06,19.30
2016,06,08,17,07,19.30
2016,06,08,17,08,19.30
2016,06,08,17,09,19.30
2016,06,08,17,10,19.30
2016,06,08,17,11,19.30
2016,06,08,17,12,19.30
2016,06,08,17,13,19.40
2016,06,08,17,14,19.40
2016,06,08,17,15,19.40
2016,06,08,17,16,19.40
2016,06,08,17,17,19.40
2016,06,08,17,18,19.50
2016,06,08,17,19,19.60